Regional Weather Roundup
Issued by NWS

Home | Current Version | Previous Version | Graphics & Text | Print | Product List | Glossary On
Versions: 1 2 3 4 5 6 7 8 9 10 11 12 13 14 15 16 17 18 19 20 21 22 23 24 25 26 27 28 29 30 31
000
ASUS45 KGTF 051410
RWRMT
MONTANA HOURLY WEATHER ROUNDUP
NATIONAL WEATHER SERVICE GREAT FALLS MT
800 AM MDT TUE MAY 05 2015

NOTE: "FAIR" INDICATES FEW OR NO CLOUDS BELOW 12000 FEET WITH NO
SIGNIFICANT WEATHER AND/OR OBSTRUCTIONS TO VISIBILITY.

MTZ001>007-043-051500-
WEST OF THE DIVIDE

CITY           SKY/WX    TMP DP  RH WIND       PRES   REMARKS
KALISPELL      CLOUDY    53  42  66 SE6       29.83R
MISSOULA       LGT RAIN  52  42  69 W5        29.88R
BUTTE          SUNNY     39  30  70 CALM      29.90R
DEER LODGE       N/A     48  32  53 CALM      29.91S
EUREKA           N/A     54  34  47 SE8       29.82R
HAMILTON         N/A     50  36  57 S2        29.86R
LIBBY            N/A     55  25  30 SE5       29.86R
$$

MTZ008-052>055-051500-
SOUTHWEST MONTANA

CITY           SKY/WX    TMP DP  RH WIND       PRES   REMARKS
BOZEMAN        PTSUNNY   50  39  66 CALM      29.83R
DILLON         MOSUNNY   52  34  50 S9        29.86R
$$

MTZ009-010-012-014-046-048-049-054-051500-
EAST SLOPES AND CENTRAL MONTANA

CITY           SKY/WX    TMP DP  RH WIND       PRES   REMARKS
CUT BANK       CLOUDY    56  36  47 W17G24    29.76F
GREAT FALLS    MOSUNNY   50  34  54 N3        29.78R
MALMSTROM AFB  PTSUNNY   53  37  54 E2        29.79R
HELENA         MOSUNNY   49  32  52 CALM      29.84R
$$

MTZ011-013-016-021-045-047-050-051-051500-
NORTH CENTRAL MONTANA

CITY           SKY/WX    TMP DP  RH WIND       PRES   REMARKS
HAVRE          MOSUNNY   50  41  71 W8        29.77R
LEWISTOWN      MOSUNNY   53  40  61 S3        29.79S
CHINOOK          N/A     54  43  66 E8        29.75R
FORT BENTON      N/A     54  36  50 CALM      29.78R
$$

MTZ017>020-022>042-056>058-061-062-051500-
EASTERN PLAINS

CITY           SKY/WX    TMP DP  RH WIND       PRES   REMARKS
BAKER          SUNNY     52  33  48 SE21      29.93S
BILLINGS       MOSUNNY   52  42  69 CALM      29.82S
GLASGOW        SUNNY     52  36  54 E16       29.82F
JORDAN           N/A     53  38  56 SE10      29.82S
LIVINGSTON     MOSUNNY   45  36  70 NW10      29.84S
MILES CITY     SUNNY     55  37  50 SE16      29.85S
SIDNEY         SUNNY     55  30  38 S8        29.92F
WOLF POINT     MOSUNNY   54  36  50 E7        29.87S
BIG TIMBER       N/A     48  39  71 CALM      29.85R
FORSYTH          N/A     57  41  54 E5        29.82S
PLENTYWOOD       N/A     54  30  40 SE16      29.90F
POPLAR           N/A     54  34  47 SE9       29.88S
$$

REGIONAL REPORTS...DAKOTAS

CITY           SKY/WX    TMP DP  RH WIND       PRES   REMARKS
WILLISTON      SUNNY     57  29  34 S8        29.94F
MINOT          CLOUDY    58  30  34 SE16G25   30.01F
DICKINSON      SUNNY     54  32  43 S21G28    29.95F
BEACH          FAIR      52  32  46 S20       29.93F
CROSBY         FAIR      55  32  41 S24G33    29.92F
WATFORD CITY   FAIR      57  28  33 S17G25    29.93S
BISMARCK       MOSUNNY   57  35  43 SE14      30.06S
GRAND FORKS    MOSUNNY   59  31  34 S9        30.17F
FARGO          SUNNY     61  26  26 SE14      30.17F
BUFFALO SD       N/A     55  35  47 SE10      29.90S
RAPID CITY     SUNNY     50  38  63 SE7       29.99F
$$

REGIONAL REPORTS...WYOMING/IDAHO/WASHINGTON

CITY           SKY/WX    TMP DP  RH WIND       PRES   REMARKS
GILLETTE       CLOUDY    47  42  83 S25       29.93S
SHERIDAN       SUNNY     49  43  80 CALM      29.87S
BUFFALO WY     SUNNY     50  44  80 SE12      29.90S
CODY           SUNNY     54  41  62 CALM      29.88R
YELLOWSTONE LA   N/A     37  31  78 CALM      30.03S
IDAHO FALLS    MOSUNNY   49  42  77 N5        29.88R
SALMON           N/A     45  36  70 CALM      29.86R
BOISE          SUNNY     54  34  46 NW9       29.85R
SPOKANE        MOSUNNY   44  34  67 SW14      29.92R
$$

REGIONAL REPORTS...ALBERTA

CITY           SKY/WX    TMP DP  RH WIND       PRES   REMARKS
EDMONTON       MOSUNNY   46  32  57 E16       29.75F
CALGARY        PTSUNNY   46  27  46 N8        29.69R
LETHBRIDGE     PTSUNNY   54  30  40 S20       29.72S
MEDICINE HAT   PTSUNNY   57  37  47 SW14      29.72R
$$

REGIONAL REPORTS...SASKATCHEWAN

CITY           SKY/WX    TMP DP  RH WIND       PRES   REMARKS
SWIFT CURRENT  SUNNY     54  41  62 S17G25    29.73S
REGINA         PTSUNNY   52  34  50 SE21G26   29.87F
SASKATOON      PTSUNNY   52  43  71 E17       29.83F
$$



USA.gov is the U.S. government's official web portal to all federal, state and local government web resources and services.